Location: Crescent
(42.8242°N, 73.7329°W)
Time: 20:16:19
(UTC+00:00)

Vanguard 2 Rocket - Pass Details

Date: 15 February 2026
Orbit: 553 x 3287 km, 32.9° (Epoch: 5 March)

Event Time Altitude Azimuth Distance (km) Brightness Sun altitude
Rises 18:43:03 0° 242° (WSW) 7,125 12.2 30.7°
Reaches altitude 10° 18:48:24 10° 238° (WSW) 5,894 12.1 30.2°
Maximum altitude 19:04:21 49° 171° (S) 2,702 10.3 28.7°
Drops below altitude 10° 19:14:08 10° 101° (E) 3,728 9.9 27.7°
Sets 19:16:43 0° 95° (E) 4,409 10.1 27.5°
